Eveleth, MN

9:06 PM CDT on June 25, 2017 (GMT -0500)
Eveleth-Virginia Municipal

Weather History for KEVM - November, 2012

Change the Weather History Date:

Friday, November 23, 2012

  Actual Average Record
Temperature  
Mean Temperature 18 °F -  
Max Temperature 24 °F 31 °F 46 °F (2011)
Min Temperature 10 °F 16 °F -5 °F (1997)
Degree Days  
Heating Degree Days 47    
Moisture  
Dew Point 13 °F    
Average Humidity 76    
Maximum Humidity 93    
Minimum Humidity 68    
Precipitation  
Precipitation 0.00 in - - ()
Sea Level Pressure  
Sea Level Pressure 30.15 in    
Wind  
Wind Speed 15 mph (NW)    
Max Wind Speed 22 mph    
Max Gust Speed 37 mph    
Visibility 6 miles    
Events Snow    
Averages and records for this station are not official NWS values.
T = Trace of Precipitation, MM = Missing Value Source: NWS Daily Summary

Daily Weather History Graph

Daily Weather History Graph

Search for Another Location

Airport or City:

Trip Planner

Search our weather history database for the weather conditions in past years. The results will help you decide how hot, cold, wet, or windy it might be!

Date:

Astronomy

Nov. 23, 2012 Rise Set
Actual Time 7:26 AM CST 4:25 PM CST
Civil Twilight 6:52 AM CST 5:00 PM CST
Nautical Twilight 6:14 AM CST 5:38 PM CST
Astronomical Twilight 5:37 AM CST 6:14 PM CST
Moon 1:55 PM CST (11/23) 2:29 AM CST (11/23)
Length of Visible Light 10h 07m
Length of Day
8h 59m
Waxing Gibbous, 80% of the Moon is Illuminated
Nov 23
Waxing Gibbous
Nov 28
Full
Dec 6
Last Quarter
Dec 13
New
Dec 19
First Quarter

Hourly Weather History & Observations

Time (CST) Temp. Windchill Dew Point Humidity Pressure Visibility Wind Dir Wind Speed Gust Speed Precip Events Conditions
12:10 AM 24.8 °F 12.4 °F 21.2 °F 86% 29.80 in 1.8 mi NW 15.0 mph 23.0 mph N/A Snow Light Snow
12:29 AM 23.0 °F 9.2 °F 21.2 °F 93% 29.81 in 1.5 mi NNW 17.3 mph 24.2 mph N/A Snow Light Snow
12:50 AM 23.0 °F 10.6 °F 19.4 °F 86% 29.82 in 1.5 mi NNW 13.8 mph 26.5 mph 0.01 in Snow Light Snow
1:29 AM 23.0 °F 9.2 °F 19.4 °F 86% 29.84 in 1.8 mi NW 17.3 mph 26.5 mph N/A Snow Light Snow
1:50 AM 23.0 °F 8.3 °F 19.4 °F 86% 29.86 in 1.8 mi NW 19.6 mph 28.8 mph N/A Snow Light Snow
2:10 AM 23.0 °F 7.6 °F 19.4 °F 86% 29.87 in 1.8 mi NW 21.9 mph 32.2 mph N/A Snow Light Snow
2:29 AM 23.0 °F 8.3 °F 19.4 °F 86% 29.88 in 2.0 mi NNW 19.6 mph 36.8 mph N/A Snow Light Snow
2:50 AM 23.0 °F 11.1 °F 19.4 °F 86% 29.90 in 2.0 mi NW 12.7 mph 20.7 mph N/A Snow Light Snow
3:10 AM 21.2 °F 6.4 °F 17.6 °F 86% 29.92 in 2.0 mi NNW 18.4 mph 33.4 mph N/A Snow Light Snow
3:29 AM 21.2 °F 6.4 °F 14.0 °F 74% 29.93 in 7.0 mi NNW 18.4 mph 32.2 mph N/A Snow Light Snow
3:50 AM 21.2 °F 7.8 °F 14.0 °F 74% 29.95 in 5.0 mi NW 15.0 mph 29.9 mph N/A Snow Light Snow
4:09 AM 21.2 °F 5.6 °F 14.0 °F 74% 29.96 in 5.0 mi NNW 20.7 mph 31.1 mph N/A Snow Light Snow
4:29 AM 21.2 °F 7.8 °F 14.0 °F 74% 29.98 in 7.0 mi NNW 15.0 mph 28.8 mph N/A Snow Light Snow
4:50 AM 21.2 °F 6.4 °F 14.0 °F 74% 29.99 in 5.0 mi NNW 18.4 mph 33.4 mph N/A Snow Light Snow
5:09 AM 21.2 °F 8.3 °F 15.8 °F 80% 30.00 in 7.0 mi NNW 13.8 mph 25.3 mph N/A Snow Light Snow
5:29 AM 21.2 °F 6.4 °F 15.8 °F 80% 30.02 in 5.0 mi NNW 18.4 mph 28.8 mph N/A Snow Light Snow
5:50 AM 21.2 °F 7.3 °F 14.0 °F 74% 30.04 in 4.0 mi NNW 16.1 mph 27.6 mph N/A Snow Light Snow
6:09 AM 21.2 °F 8.9 °F 14.0 °F 74% 30.05 in 5.0 mi NNW 12.7 mph 27.6 mph N/A Snow Light Snow
6:29 AM 21.2 °F 8.3 °F 14.0 °F 74% 30.06 in 5.0 mi NNW 13.8 mph 28.8 mph N/A Snow Light Snow
6:50 AM 21.2 °F 7.3 °F 14.0 °F 74% 30.08 in 7.0 mi NNW 16.1 mph 24.2 mph N/A Snow Light Snow
7:09 AM 21.2 °F 5.6 °F 14.0 °F 74% 30.09 in 5.0 mi NNW 20.7 mph 26.5 mph N/A Snow Light Snow
7:29 AM - - - N/A% - 7.0 mi NNW 11.5 mph 27.6 mph N/A   Unknown
7:50 AM 21.2 °F 8.3 °F 14.0 °F 74% 30.12 in 10.0 mi NNW 13.8 mph 23.0 mph N/A Snow Light Snow
8:09 AM 21.2 °F 7.8 °F 14.0 °F 74% 30.13 in 3.0 mi NNW 15.0 mph 24.2 mph N/A Snow Light Snow
8:29 AM 21.2 °F 9.5 °F 14.0 °F 74% 30.14 in 7.0 mi NNW 11.5 mph 26.5 mph N/A Snow Light Snow
8:50 AM 21.2 °F 6.4 °F 14.0 °F 74% 30.15 in 5.0 mi NW 18.4 mph 27.6 mph N/A Snow Light Snow
9:09 AM 21.2 °F 7.3 °F 15.8 °F 80% 30.15 in 1.2 mi NW 16.1 mph 21.9 mph N/A Snow Light Snow
9:30 AM 21.2 °F 8.3 °F 15.8 °F 80% 30.17 in 2.0 mi NW 13.8 mph 21.9 mph N/A Snow Light Snow
9:49 AM 21.2 °F 7.3 °F 14.0 °F 74% 30.18 in 2.5 mi NNW 16.1 mph 25.3 mph N/A Snow Light Snow
10:09 AM 21.2 °F 9.5 °F 14.0 °F 74% 30.18 in 3.0 mi NNW 11.5 mph 23.0 mph N/A Snow Light Snow
10:30 AM 21.2 °F 8.3 °F 14.0 °F 74% 30.19 in 3.0 mi NW 13.8 mph - N/A Snow Light Snow
10:49 AM 21.2 °F 8.9 °F 14.0 °F 74% 30.19 in 2.5 mi NW 12.7 mph 23.0 mph N/A Snow Light Snow
11:09 AM 21.2 °F 7.3 °F 14.0 °F 74% 30.20 in 3.0 mi NW 16.1 mph 21.9 mph N/A Snow Light Snow
11:30 AM 21.2 °F 9.5 °F 14.0 °F 74% 30.20 in 5.0 mi NNW 11.5 mph 20.7 mph N/A Snow Light Snow
11:49 AM 21.2 °F 6.4 °F 14.0 °F 74% 30.20 in 7.0 mi NW 18.4 mph 25.3 mph N/A Snow Light Snow
12:09 PM 21.2 °F 6.0 °F 12.2 °F 68% 30.21 in 7.0 mi NW 19.6 mph 27.6 mph N/A Snow Light Snow
12:30 PM 21.2 °F 5.6 °F 12.2 °F 68% 30.22 in 7.0 mi NW 20.7 mph 27.6 mph N/A Snow Light Snow
12:49 PM 21.2 °F 7.3 °F 12.2 °F 68% 30.22 in 7.0 mi NW 16.1 mph 26.5 mph N/A Snow Light Snow
1:09 PM 21.2 °F 6.0 °F 12.2 °F 68% 30.23 in 10.0 mi NW 19.6 mph 25.3 mph N/A   Overcast
1:30 PM 19.4 °F 6.0 °F 12.2 °F 74% 30.23 in 10.0 mi WNW 13.8 mph 21.9 mph N/A Snow Light Snow
1:49 PM 19.4 °F 6.6 °F 12.2 °F 74% 30.24 in 2.5 mi NW 12.7 mph 20.7 mph N/A Snow Light Snow
2:09 PM 19.4 °F 5.0 °F 12.2 °F 74% 30.23 in 7.0 mi NW 16.1 mph 21.9 mph N/A Snow Light Snow
2:30 PM 19.4 °F 5.5 °F 12.2 °F 74% 30.24 in 7.0 mi NW 15.0 mph 21.9 mph N/A Snow Light Snow
2:49 PM 19.4 °F 6.6 °F 12.2 °F 74% 30.24 in 7.0 mi NW 12.7 mph 23.0 mph N/A Snow Light Snow
3:09 PM 19.4 °F 7.2 °F 12.2 °F 74% 30.24 in 3.0 mi NNW 11.5 mph 20.7 mph N/A Snow Light Snow
3:30 PM 19.4 °F 7.2 °F 14.0 °F 80% 30.25 in 3.0 mi WNW 11.5 mph 17.3 mph N/A Snow Light Snow
3:49 PM 19.4 °F 7.2 °F 12.2 °F 74% 30.26 in 2.5 mi NNW 11.5 mph 17.3 mph N/A Snow Light Snow
4:09 PM 19.4 °F 8.6 °F 12.2 °F 74% 30.26 in 3.0 mi NNW 9.2 mph - N/A Snow Light Snow
4:30 PM 17.6 °F 5.7 °F 12.2 °F 79% 30.27 in 2.0 mi WNW 10.4 mph 20.7 mph N/A Snow Light Snow
4:49 PM 17.6 °F 3.7 °F 12.2 °F 79% 30.27 in 7.0 mi NW 13.8 mph 19.6 mph N/A Snow Light Snow
5:09 PM 17.6 °F 4.3 °F 12.2 °F 79% 30.28 in 10.0 mi WNW 12.7 mph 18.4 mph N/A Snow Light Snow
5:29 PM - - - N/A% 30.28 in 10.0 mi WNW 13.8 mph 20.7 mph N/A   Unknown
5:50 PM 17.6 °F 3.2 °F 12.2 °F 79% 30.30 in 7.0 mi WNW 15.0 mph - N/A Snow Light Snow
6:09 PM 17.6 °F 5.7 °F 10.4 °F 73% 30.30 in 10.0 mi NW 10.4 mph 20.7 mph N/A Snow Light Snow
6:29 PM 17.6 °F 6.4 °F 10.4 °F 73% 30.30 in 10.0 mi NW 9.2 mph 19.6 mph N/A   Overcast
6:50 PM 17.6 °F 8.2 °F 10.4 °F 73% 30.30 in 10.0 mi NW 6.9 mph 17.3 mph N/A   Overcast
7:09 PM 17.6 °F 5.7 °F 10.4 °F 73% 30.29 in 10.0 mi NW 10.4 mph 16.1 mph N/A   Overcast
7:29 PM 17.6 °F 5.7 °F 8.6 °F 68% 30.28 in 10.0 mi NW 10.4 mph - N/A   Overcast
7:50 PM 15.8 °F 3.4 °F 8.6 °F 73% 30.28 in 10.0 mi NW 10.4 mph 17.3 mph N/A   Overcast
8:09 PM 15.8 °F 4.2 °F 8.6 °F 73% 30.28 in 10.0 mi NW 9.2 mph 16.1 mph N/A   Overcast
8:29 PM 15.8 °F 6.1 °F 8.6 °F 73% 30.27 in 10.0 mi NW 6.9 mph - N/A   Overcast
8:50 PM 15.8 °F 6.1 °F 8.6 °F 73% 30.27 in 10.0 mi WNW 6.9 mph - N/A   Overcast
9:09 PM 15.8 °F 7.2 °F 8.6 °F 73% 30.27 in 10.0 mi NW 5.8 mph - N/A   Overcast
9:29 PM 15.8 °F 3.4 °F 8.6 °F 73% 30.28 in 10.0 mi NW 10.4 mph - N/A   Overcast
9:50 PM 15.8 °F 3.4 °F 8.6 °F 73% 30.28 in 10.0 mi NW 10.4 mph - N/A Snow Light Snow
10:09 PM 14.0 °F 2.0 °F 8.6 °F 79% 30.27 in 10.0 mi NW 9.2 mph - N/A Snow Light Snow
10:29 PM 12.2 °F 0.7 °F 6.8 °F 79% 30.28 in 10.0 mi WNW 8.1 mph - N/A   Mostly Cloudy
10:50 PM 12.2 °F -0.2 °F 8.6 °F 85% 30.28 in 10.0 mi WNW 9.2 mph - N/A   Scattered Clouds
11:09 PM 12.2 °F 0.7 °F 8.6 °F 85% 30.28 in 10.0 mi WNW 8.1 mph - N/A Snow Light Snow
11:29 PM 12.2 °F 1.7 °F 8.6 °F 85% 30.28 in 10.0 mi NW 6.9 mph - N/A Snow Light Snow
11:50 PM 10.4 °F -1.5 °F 5.0 °F 79% 30.28 in 7.0 mi WNW 8.1 mph - N/A Snow Light Snow